When you browse on this site, cookies collect data to enhance your experience and personalize the content and advertising you see.
Visit our Privacy Policy to learn more. By continuing to use the site, you agree to this use of cookies and data.
  • în România
  • Lista ţărilor
  • Pe 7 zile
  • Temperatura apei
  • Hartă satelitară
  • Meteo pe hartă
  • Widget-uri
  • user-avatar
    Intrare

    Meteo pe oră la Kurumoch

    Astăzi, 21 Mai, Marţi

    Timp Temperatura Precipitaţii Vânt Presiune Umiditate
    00:00 +5°C° 0 mm 2 m/s 759 mmHg 77%
    01:00 +5°C° 0 mm 2 m/s 759 mmHg 79%
    02:00 +4°C° 0 mm 2 m/s 759 mmHg 80%
    03:00 +4°C° 0 mm 2 m/s 759 mmHg 87%
    04:00 +4°C° 0 mm 3 m/s 759 mmHg 83%
    05:00 +5°C° 0 mm 3 m/s 759 mmHg 79%
    06:00 +8°C° 0 mm 3 m/s 760 mmHg 75%
    07:00 +8°C° 0 mm 4 m/s 760 mmHg 67%
    08:00 +11°C° 0 mm 4 m/s 760 mmHg 59%
    09:00 +12°C° 0 mm 5 m/s 759 mmHg 50%
    10:00 +13°C° 0 mm 5 m/s 760 mmHg 48%
    11:00 +14°C° 0 mm 5 m/s 760 mmHg 46%
    12:00 +14°C° 0 mm 5 m/s 760 mmHg 43%
    13:00 +15°C° 0 mm 5 m/s 760 mmHg 43%
    14:00 +15°C° 0 mm 5 m/s 760 mmHg 43%
    15:00 +15°C° 0 mm 5 m/s 759 mmHg 43%
    16:00 +15°C° 0 mm 4 m/s 759 mmHg 48%
    17:00 +14°C° 0 mm 3 m/s 759 mmHg 52%
    18:00 +14°C° 0 mm 3 m/s 759 mmHg 56%
    19:00 +13°C° 0 mm 2 m/s 759 mmHg 59%
    20:00 +12°C° 0 mm 2 m/s 759 mmHg 62%
    21:00 +9°C° 0 mm 2 m/s 759 mmHg 65%
    22:00 +9°C° 0 mm 2 m/s 759 mmHg 67%
    23:00 +9°C° 0 mm 2 m/s 759 mmHg 69%

    Mâine, 22 Mai, Miercuri

    Timp Temperatura Precipitaţii Vânt Presiune Umiditate
    00:00 +8°C° 0 mm 2 m/s 759 mmHg 70%
    01:00 +8°C° 0 mm 2 m/s 759 mmHg 71%
    02:00 +8°C° 0 mm 2 m/s 759 mmHg 71%
    03:00 +8°C° 0 mm 2 m/s 759 mmHg 71%
    04:00 +9°C° 0 mm 2 m/s 759 mmHg 70%
    05:00 +10°C° 0 mm 2 m/s 759 mmHg 69%
    06:00 +12°C° 0 mm 1 m/s 758 mmHg 68%
    07:00 +11°C° 1 mm 1 m/s 758 mmHg 74%
    08:00 +11°C° 1 mm 1 m/s 758 mmHg 79%
    09:00 +11°C° 1 mm 1 m/s 758 mmHg 84%
    10:00 +11°C° 1.7 mm 1 m/s 757 mmHg 86%
    11:00 +10°C° 1.7 mm 2 m/s 757 mmHg 89%
    12:00 +10°C° 1.7 mm 3 m/s 757 mmHg 91%
    13:00 +12°C° 0.1 mm 3 m/s 756 mmHg 87%
    14:00 +14°C° 0.1 mm 2 m/s 756 mmHg 82%
    15:00 +16°C° 0.1 mm 2 m/s 756 mmHg 78%
    16:00 +15°C° 0.5 mm 2 m/s 755 mmHg 83%
    17:00 +15°C° 0.5 mm 2 m/s 755 mmHg 87%
    18:00 +14°C° 0.5 mm 2 m/s 755 mmHg 92%
    19:00 +14°C° 0.3 mm 2 m/s 754 mmHg 93%
    20:00 +14°C° 0.3 mm 2 m/s 754 mmHg 94%
    21:00 +14°C° 0.3 mm 2 m/s 754 mmHg 95%
    22:00 +13°C° 0 mm 2 m/s 754 mmHg 94%
    23:00 +13°C° 0 mm 2 m/s 754 mmHg 93%

    Poimâine, 23 Mai, Joi

    Timp Temperatura Precipitaţii Vânt Presiune Umiditate
    00:00 +12°C° 0 mm 3 m/s 753 mmHg 92%
    01:00 +12°C° 0 mm 3 m/s 753 mmHg 92%
    02:00 +12°C° 0 mm 3 m/s 753 mmHg 92%
    03:00 +12°C° 0 mm 4 m/s 753 mmHg 91%
    04:00 +12°C° 0 mm 4 m/s 753 mmHg 88%
    05:00 +13°C° 0 mm 4 m/s 752 mmHg 85%
    06:00 +14°C° 0 mm 4 m/s 752 mmHg 82%
    07:00 +15°C° 0 mm 5 m/s 752 mmHg 74%
    08:00 +17°C° 0 mm 6 m/s 752 mmHg 66%
    09:00 +19°C° 0 mm 6 m/s 751 mmHg 59%
    10:00 +20°C° 0 mm 7 m/s 751 mmHg 55%
    11:00 +21°C° 0 mm 7 m/s 751 mmHg 51%
    12:00 +22°C° 0 mm 7 m/s 750 mmHg 46%
    13:00 +22°C° 0 mm 7 m/s 750 mmHg 47%
    14:00 +22°C° 0 mm 7 m/s 750 mmHg 47%
    15:00 +22°C° 0 mm 7 m/s 749 mmHg 47%
    16:00 +21°C° 0 mm 6 m/s 749 mmHg 51%
    17:00 +20°C° 0 mm 5 m/s 748 mmHg 54%
    18:00 +19°C° 0 mm 5 m/s 748 mmHg 58%
    19:00 +17°C° 0 mm 5 m/s 748 mmHg 62%
    20:00 +16°C° 0 mm 5 m/s 748 mmHg 66%
    21:00 +15°C° 0 mm 5 m/s 748 mmHg 70%
    22:00 +15°C° 0.1 mm 5 m/s 747 mmHg 76%
    23:00 +14°C° 0.1 mm 5 m/s 747 mmHg 82%

    24 Mai, Vineri

    Timp Temperatura Precipitaţii Vânt Presiune Umiditate
    00:00 +14°C° 0.1 mm 5 m/s 747 mmHg 88%
    01:00 +14°C° 2.1 mm 4 m/s 747 mmHg 90%
    02:00 +13°C° 2.1 mm 4 m/s 747 mmHg 92%
    03:00 +13°C° 2.1 mm 4 m/s 748 mmHg 94%
    04:00 +12°C° 0.5 mm 5 m/s 748 mmHg 91%
    05:00 +10°C° 0.5 mm 5 m/s 749 mmHg 88%
    06:00 +9°C° 0.5 mm 6 m/s 749 mmHg 86%
    07:00 +9°C° 0 mm 6 m/s 750 mmHg 78%
    08:00 +10°C° 0 mm 6 m/s 750 mmHg 70%
    09:00 +11°C° 0 mm 6 m/s 751 mmHg 62%
    10:00 +11°C° 0 mm 6 m/s 752 mmHg 59%
    11:00 +13°C° 0 mm 6 m/s 752 mmHg 56%
    12:00 +14°C° 0 mm 6 m/s 752 mmHg 54%
    13:00 +14°C° 0 mm 6 m/s 753 mmHg 54%
    14:00 +14°C° 0 mm 5 m/s 753 mmHg 54%
    15:00 +14°C° 0 mm 5 m/s 753 mmHg 54%
    16:00 +13°C° 0 mm 5 m/s 754 mmHg 57%
    17:00 +13°C° 0 mm 4 m/s 754 mmHg 59%
    18:00 +12°C° 0 mm 4 m/s 755 mmHg 62%
    19:00 +11°C° 0 mm 3 m/s 755 mmHg 64%
    20:00 +9°C° 0 mm 3 m/s 756 mmHg 67%
    21:00 +8°C° 0 mm 2 m/s 756 mmHg 69%
    22:00 +7°C° 0 mm 2 m/s 757 mmHg 70%
    23:00 +8°C° 0 mm 1 m/s 757 mmHg 70%

    25 Mai, Sâmbătă

    Timp Temperatura Precipitaţii Vânt Presiune Umiditate
    00:00 +7°C° 0 mm 1 m/s 757 mmHg 71%
    01:00 +7°C° 0 mm 1 m/s 758 mmHg 71%
    02:00 +7°C° 0 mm 1 m/s 758 mmHg 72%
    03:00 +6°C° 0 mm 1 m/s 758 mmHg 73%
    04:00 +7°C° 0 mm 0 m/s 758 mmHg 70%
    05:00 +8°C° 0 mm 0 m/s 759 mmHg 66%
    06:00 +9°C° 0 mm 0 m/s 759 mmHg 63%
    07:00 +10°C° 0 mm 0 m/s 759 mmHg 57%
    08:00 +12°C° 0 mm 0 m/s 759 mmHg 51%
    09:00 +15°C° 0 mm 1 m/s 760 mmHg 45%
    10:00 +15°C° 0 mm 1 m/s 759 mmHg 43%
    11:00 +16°C° 0 mm 1 m/s 759 mmHg 41%
    12:00 +18°C° 0 mm 1 m/s 759 mmHg 40%
    13:00 +18°C° 0 mm 1 m/s 759 mmHg 40%
    14:00 +17°C° 0 mm 2 m/s 759 mmHg 40%
    15:00 +17°C° 0 mm 2 m/s 758 mmHg 40%
    16:00 +17°C° 0 mm 2 m/s 758 mmHg 45%
    17:00 +16°C° 0 mm 2 m/s 758 mmHg 50%
    18:00 +16°C° 0 mm 2 m/s 758 mmHg 54%
    19:00 +14°C° 0 mm 2 m/s 758 mmHg 56%
    20:00 +12°C° 0 mm 3 m/s 758 mmHg 58%
    21:00 +10°C° 0 mm 3 m/s 758 mmHg 60%
    22:00 +10°C° 0 mm 3 m/s 758 mmHg 61%
    23:00 +10°C° 0 mm 3 m/s 758 mmHg 62%

    26 Mai, Duminică

    Timp Temperatura Precipitaţii Vânt Presiune Umiditate
    00:00 +9°C° 0 mm 3 m/s 758 mmHg 64%
    01:00 +8°C° 0 mm 4 m/s 758 mmHg 64%
    02:00 +8°C° 0 mm 4 m/s 758 mmHg 65%
    03:00 +8°C° 0 mm 4 m/s 757 mmHg 66%
    04:00 +8°C° 0 mm 4 m/s 757 mmHg 65%
    05:00 +9°C° 0 mm 5 m/s 757 mmHg 64%
    06:00 +10°C° 0 mm 5 m/s 757 mmHg 64%
    07:00 +11°C° 0 mm 6 m/s 756 mmHg 61%
    08:00 +14°C° 0 mm 6 m/s 756 mmHg 58%
    09:00 +16°C° 0 mm 7 m/s 756 mmHg 55%
    10:00 +17°C° 0 mm 7 m/s 755 mmHg 53%
    11:00 +18°C° 0 mm 7 m/s 755 mmHg 51%
    12:00 +20°C° 0 mm 7 m/s 754 mmHg 49%
    13:00 +18°C° 0.1 mm 7 m/s 754 mmHg 54%
    14:00 +17°C° 0.1 mm 7 m/s 753 mmHg 59%
    15:00 +17°C° 0.1 mm 6 m/s 753 mmHg 64%
    16:00 +16°C° 0 mm 6 m/s 752 mmHg 66%
    17:00 +16°C° 0 mm 6 m/s 751 mmHg 67%
    18:00 +15°C° 0 mm 6 m/s 751 mmHg 69%
    19:00 +15°C° 0.2 mm 6 m/s 750 mmHg 70%
    20:00 +15°C° 0.2 mm 6 m/s 750 mmHg 71%
    21:00 +14°C° 0.2 mm 6 m/s 749 mmHg 72%
    22:00 +14°C° 0.3 mm 6 m/s 749 mmHg 76%
    23:00 +15°C° 0.3 mm 5 m/s 748 mmHg 80%
    Arată mai mult